SCP
0 0 0 0 0 0 0 0 0 1 1 1 2 2 1 1 2 2 3 4 4 4 4 4 5 6 7 7 7 6 6 6 6 7 8 8 7 6 8 10 11 11 11 11
0 0 0 0 0 0 0 0 1 1 1 1 1 1 1 2 3 4 4 4 4 4 4 4 6 8 9 8 7 6 5 6 6 7 7 7 6 6 7 9 10 11 12 12
0 0 0 0 0 1 1 1 1 1 1 1 1 2 3 4 5 5 4 4 3 4 5 6 8 9 9 9 8 7 6 5 5 5 5 5 5 6 6 8 9 11 12 12
0 0 0 0 0 1 1 1 1 1 1 2 3 4 5 6 6 5 4 3 3 5 8 9 10 10 9 8 8 7 6 5 4 3 3 4 5 6 6 7 8 10 11 12
0 0 0 0 0 1 1 1 1 1 2 4 5 7 7 7 6 5 5 4 4 6 9 12 13 12 9 8 7 6 6 5 4 4 4 4 5 5 5 6 7 9 11 11
0 0 0 0 0 0 1 1 1 3 4 6 7 9 9 8 6 5 5 5 6 7 9 12 13 11 9 7 6 6 7 7 7 7 6 5 5 5 4 5 6 8 10 10
0 0 0 1 1 1 1 1 2 5 7 9 9 10 9 8 6 4 4 5 7 8 9 10 10 9 7 6 6 6 7 9 9 8 6 5 5 4 4 4 6 8 9 8
0 0 0 1 1 1 1 2 5 9 12 13 12 11 9 6 4 3 4 5 8 10 9 8 8 8 7 8 8 7 7 7 7 6 5 4 4 4 4 4 6 7 7 6
1 1 1 1 1 2 3 6 9 12 13 13 12 9 7 5 4 4 5 7 9 10 9 7 7 8 9 11 11 8 6 5 5 4 4 4 3 3 4 4 5 6 6 5
2 2 2 2 3 5 9 11 12 12 11 10 9 7 5 4 5 5 5 6 7 8 7 6 6 8 10 11 11 10 8 6 5 5 5 4 4 4 4 5 5 5 4 4
2 2 3 3 5 8 12 14 13 11 10 8 7 6 5 5 5 5 5 5 5 5 5 4 6 8 10 10 10 9 8 7 6 6 6 5 5 5 4 4 4 4 4 3
2 2 3 4 6 8 11 12 12 10 9 7 6 6 6 6 7 7 7 6 5 4 4 5 5 7 9 9 9 8 7 8 8 8 7 6 5 5 4 4 3 3 2 2
2 3 4 6 8 9 9 9 8 7 6 5 5 5 6 7 8 9 9 8 7 6 6 6 6 7 8 9 9 8 7 7 8 9 8 6 6 5 4 4 3 2 1 1
3 4 5 8 10 10 8 7 5 4 3 3 3 4 6 7 7 7 8 8 8 8 9 8 7 6 7 8 8 7 6 5 7 9 8 7 6 5 5 4 4 3 1 1
2 4 7 10 10 8 6 5 3 2 2 1 1 3 5 6 5 4 4 5 7 9 9 8 7 5 5 6 7 7 5 4 5 7 8 7 6 5 5 4 4 3 3 2
2 4 7 8 7 5 3 3 2 2 1 1 1 2 3 4 3 3 2 3 5 7 8 8 6 4 4 5 7 6 4 3 3 5 6 7 6 6 5 4 3 3 3 2
2 4 5 5 4 2 2 2 2 3 2 1 1 2 3 3 2 2 1 2 3 5 7 8 6 4 3 4 5 5 3 2 2 3 4 6 6 5 4 4 3 2 2 2
2 3 4 3 2 2 2 2 2 2 2 2 2 2 2 2 2 1 1 1 2 3 6 7 7 5 3 3 4 4 2 1 2 2 3 5 5 4 4 4 3 3 2 2
2 2 3 3 3 2 2 1 1 1 2 2 2 2 1 1 1 1 1 1 1 2 5 7 7 5 4 3 3 2 1 1 1 2 2 4 4 4 4 3 3 3 2 1
2 2 2 3 3 2 2 1 1 1 2 2 2 1 1 1 1 1 1 0 0 2 5 7 8 6 5 3 2 2 1 1 1 2 2 3 3 3 4 3 3 3 2 1
1 2 2 3 3 2 2 1 1 1 2 2 2 1 1 1 1 1 1 1 1 2 5 8 9 8 5 4 2 2 1 1 1 2 3 3 4 4 4 4 3 2 1 1
1 1 3 4 4 3 3 2 2 2 2 2 2 2 2 2 1 1 1 1 1 2 5 8 9 8 5 3 3 2 1 1 1 2 3 4 5 5 4 4 3 2 1 0
1 1 3 4 5 5 5 4 3 3 3 3 3 2 2 2 2 1 1 1 2 3 5 7 8 6 4 3 3 2 2 1 1 2 3 4 5 5 5 4 2 1 0 0
2 2 2 3 4 5 5 4 3 3 3 2 2 2 2 2 2 1 1 1 2 3 5 5 4 3 2 2 2 2 1 1 1 1 2 4 5 5 4 3 1 1 0 0
2 2 2 2 3 3 3 3 4 4 3 2 2 2 2 2 2 2 1 1 1 2 3 2 1 1 1 1 1 1 1 1 1 1 2 3 3 3 2 1 1 0 0 0
2 2 2 2 2 2 2 3 4 4 2 1 1 2 2 2 2 1 1 1 1 1 1 0 0 0 0 0 0 0 0 0 0 1 1 2 2 2 1 0 0 0 0 0
1 1 1 1 1 2 2 3 4 3 2 1 1 1 1 2 1 1 1 1 0 0 0 0 0 0 0 0 0 0 0 0 0 1 1 1 1 1 0 0 0 0 0 0
Wind_Speed
4 5 3 2 3 2 2 5 6 6 6 7 7 7 7 6 5 6 5 5 5 6 5 6 6 6 7 6 5 5 6 6 6 5 4 4 4 4 3 3 4 3 3 2
2 2 1 2 2 1 1 2 3 3 4 5 5 4 4 5 6 5 6 6 5 5 5 6 7 6 6 6 5 5 5 5 5 4 4 4 4 4 3 3 2 2 3 3
2 3 3 3 3 1 1 1 4 5 5 4 5 6 6 6 7 6 6 6 6 6 6 6 6 7 7 6 5 5 5 4 4 4 4 4 4 3 3 3 3 2 2 2
1 2 3 8 4 3 3 0 1 2 3 6 7 6 5 5 6 5 4 4 4 5 5 5 5 6 6 6 6 5 4 3 3 3 3 3 4 4 3 3 3 2 2 2
3 2 4 5 2 2 3 1 1 4 3 3 6 6 3 2 4 5 5 5 4 3 4 5 6 6 6 6 6 5 5 4 4 4 3 4 4 4 3 3 2 2 2 2
3 3 4 6 5 2 6 1 2 4 5 4 6 4 3 2 2 3 4 4 3 3 4 4 4 5 7 5 5 5 5 5 4 4 4 3 3 3 2 2 2 2 2 2
4 3 5 6 5 4 4 5 3 3 5 5 4 5 3 2 3 3 4 4 4 4 4 3 4 6 6 5 4 4 3 3 3 3 3 3 3 2 2 2 2 2 2 1
4 3 6 6 3 3 5 3 2 4 4 5 5 4 4 4 4 4 4 5 5 5 4 3 4 6 6 5 4 3 3 3 2 2 2 2 3 2 2 2 2 2 2 1
6 6 5 1 2 2 3 4 3 4 4 6 6 5 4 4 4 4 4 4 4 5 5 2 3 5 6 4 4 5 4 3 3 2 2 2 3 3 2 2 2 2 2 2
2 1 1 3 4 4 4 4 5 6 6 7 6 5 4 3 3 3 3 3 4 5 4 2 2 3 3 3 4 5 4 3 3 3 2 1 2 2 2 2 2 2 2 2
1 1 3 5 4 4 5 5 7 6 5 6 7 5 4 4 3 3 3 2 4 4 3 2 2 2 3 3 4 4 3 3 2 2 2 1 1 2 3 4 5 5 4 4
4 4 2 1 1 4 5 4 6 6 5 4 5 5 4 4 2 3 3 3 3 3 3 2 2 2 2 3 4 5 3 2 2 2 1 1 1 1 2 2 4 5 5 5
4 3 3 2 1 4 4 3 4 4 4 4 3 3 4 3 2 2 3 3 3 3 3 3 2 1 1 2 4 4 3 3 2 2 1 1 1 2 1 2 2 3 5 5
3 3 2 1 1 2 3 2 3 3 3 3 3 2 3 3 3 3 2 1 2 3 2 2 2 1 1 2 3 2 2 2 2 2 2 2 2 2 2 2 1 2 3 4
2 4 5 3 1 1 2 3 3 2 2 2 2 2 3 3 2 1 1 1 2 2 1 1 1 1 1 2 2 2 2 2 2 2 2 2 2 2 2 2 2 1 1 1
2 2 4 4 3 2 3 3 3 1 1 1 2 1 2 2 2 1 1 2 2 1 1 2 2 2 2 2 2 1 2 3 2 1 1 1 1 1 1 1 1 1 1 1
3 2 4 3 2 2 2 2 2 2 2 1 2 2 2 3 2 1 0 1 1 1 2 2 2 2 2 2 2 2 2 2 3 2 2 2 1 2 2 2 1 2 2 2
5 5 5 5 4 3 2 1 1 2 1 2 2 2 2 3 2 2 1 0 0 1 2 2 2 1 1 2 2 2 2 2 2 2 2 2 2 2 2 2 2 2 2 1
3 3 2 3 3 3 2 1 1 1 1 1 2 2 3 3 3 2 2 1 1 3 4 3 3 2 2 3 2 2 2 2 2 2 2 2 2 2 2 2 2 2 1 1
3 3 3 2 3 3 2 1 1 1 0 1 1 2 2 3 3 3 2 2 4 4 4 3 2 2 3 3 2 2 2 2 2 2 2 2 2 2 2 2 2 1 1 1
3 3 3 2 2 2 1 2 2 1 1 1 2 3 3 3 3 3 2 2 4 3 3 3 2 2 2 2 2 2 2 2 2 2 2 2 2 2 2 1 1 1 1 1
2 2 2 2 2 2 1 0 1 1 2 2 2 2 2 2 2 2 3 4 4 4 2 2 2 3 3 2 2 2 2 2 2 2 2 2 2 2 2 1 1 1 1 1
1 0 0 0 1 1 0 0 1 2 2 2 3 3 3 3 3 3 3 3 3 4 3 2 3 4 4 3 2 3 3 3 2 2 2 2 2 2 2 2 2 2 1 1
0 1 1 0 0 1 1 2 2 1 1 1 2 3 3 2 2 2 2 3 4 4 2 2 4 4 4 1 2 2 2 3 3 2 2 2 2 2 2 2 2 1 1 1
1 1 1 0 0 1 2 2 1 1 0 1 2 3 2 2 3 2 2 2 3 3 1 2 4 4 2 2 2 2 2 2 3 2 2 2 2 1 1 2 2 2 1 1
0 1 1 2 2 2 2 1 1 0 0 1 2 2 1 1 1 2 1 2 2 2 1 1 2 2 1 2 2 2 2 2 2 2 2 2 2 2 1 1 2 2 2 1
1 1 0 1 1 1 1 1 1 1 1 1 2 2 1 1 1 1 1 1 1 1 1 1 1 1 1 1 2 2 2 2 2 2 2 2 2 2 2 2 2 1 1 1
Wind_Direction
214 228 218 236 264 272 160 183 183 219 206 212 201 186 177 162 146 135 138 148 151 157 165 166 167 170 172 177 189 183 177 184 193 191 182 174 178 186 186 187 190 190 188 200
331 303 296 306 294 259 241 175 184 183 231 225 178 145 142 146 146 145 159 166 163 159 157 168 170 172 173 173 176 167 170 183 186 177 173 177 182 183 178 184 186 178 192 198
287 307 23 306 261 200 242 230 172 198 223 160 138 151 164 160 154 165 173 169 162 172 171 172 175 170 171 170 161 163 171 170 168 168 175 185 186 174 179 187 183 185 198 197
157 39 231 244 249 151 141 85 105 140 159 160 161 158 150 147 151 157 152 149 168 184 173 167 163 157 155 148 146 148 153 165 165 157 171 180 175 178 187 188 184 193 200 200
128 186 265 287 286 175 149 345 74 120 127 132 120 85 47 163 165 168 161 156 165 171 154 144 149 151 140 140 143 143 156 168 172 165 166 176 180 188 184 172 185 197 195 190
136 161 221 254 283 238 106 22 321 125 140 135 109 115 232 219 152 134 122 125 133 126 109 121 132 130 126 137 141 156 169 169 167 163 157 160 169 166 164 166 188 184 184 190
160 195 253 271 303 60 112 228 268 132 137 137 146 180 183 128 103 112 115 118 117 106 108 128 128 121 129 137 155 176 172 156 153 162 168 165 158 159 161 167 163 164 170 190
150 172 250 301 29 111 203 210 123 113 117 126 129 116 108 105 96 94 98 109 118 118 109 112 125 130 137 154 167 152 140 130 137 153 174 153 138 134 135 144 147 174 173 198
178 201 232 267 140 183 150 114 99 106 113 125 119 114 111 105 110 109 107 113 114 118 115 121 137 140 148 170 154 146 145 147 143 137 140 135 139 144 147 154 169 198 193 209
61 320 360 48 52 53 74 97 103 105 111 116 117 119 118 109 102 102 111 117 107 102 105 111 125 130 149 152 144 138 144 151 148 139 145 153 158 168 179 186 194 207 205 212
72 306 30 19 30 49 56 72 80 78 88 107 113 114 121 121 124 124 110 106 112 121 132 134 130 143 152 143 133 133 143 155 157 159 169 183 190 202 204 215 203 200 212 204
210 223 160 246 304 63 60 61 90 89 69 83 106 114 106 115 128 124 118 107 108 117 124 123 125 137 140 137 136 140 155 172 174 169 176 184 181 301 292 250 233 221 216 206
187 195 175 185 65 68 74 69 82 92 104 102 85 106 110 118 124 105 101 108 132 141 134 124 109 108 129 126 135 145 166 193 186 173 180 195 195 195 266 320 320 264 247 236
176 140 103 97 106 73 94 100 92 86 87 108 112 98 95 97 97 102 118 140 140 133 133 131 119 136 170 137 129 143 176 209 192 187 191 199 204 211 214 214 267 301 288 262
204 160 158 160 133 108 121 112 99 92 86 71 84 101 103 108 119 146 157 116 109 108 124 136 145 214 191 144 141 157 186 213 214 207 200 202 204 211 224 213 211 233 274 315
183 127 119 124 136 116 108 105 107 133 152 132 120 129 124 126 134 116 112 109 114 148 196 184 209 229 201 174 172 188 204 208 201 196 193 204 203 182 197 211 216 213 221 227
140 154 135 139 157 134 130 149 155 176 185 177 178 148 115 104 88 63 55 149 155 199 204 196 231 249 228 199 193 203 205 211 204 197 199 197 191 177 177 188 218 236 243 230
184 185 172 164 163 147 132 154 155 152 183 197 167 131 135 145 160 196 222 223 35 325 275 251 248 246 241 223 214 211 199 199 202 205 204 195 189 183 180 191 218 234 258 263
144 146 149 149 149 146 152 171 185 154 166 157 151 170 182 186 190 193 191 177 214 256 262 256 245 230 241 246 227 199 190 194 203 206 194 191 191 192 192 195 213 229 226 221
101 108 117 120 127 135 148 162 143 117 124 143 165 186 201 220 210 196 192 217 232 240 247 248 238 234 244 245 200 176 180 184 182 184 177 173 182 191 193 199 204 208 193 185
77 77 83 83 96 125 160 164 143 166 211 192 186 204 214 227 219 196 191 239 262 261 253 240 245 255 249 226 182 172 173 172 179 182 173 172 175 181 185 191 184 172 181 204
75 69 78 99 124 141 179 162 179 217 224 233 229 209 200 210 212 211 217 223 238 248 243 234 233 236 233 208 182 173 172 168 173 177 170 168 170 171 174 179 176 182 194 204
96 91 80 119 158 161 154 243 233 222 219 224 222 214 213 217 207 198 235 246 232 227 222 226 229 224 218 194 177 177 180 177 177 188 186 177 178 178 182 193 194 186 186 192
163 286 276 295 70 108 245 253 241 235 241 244 235 228 213 216 246 239 224 219 216 214 226 229 215 213 201 177 165 175 180 178 177 187 190 183 182 186 188 185 184 176 173 173
213 223 212 180 232 249 247 251 266 281 282 261 260 262 249 214 204 215 207 201 202 206 230 220 203 200 190 161 168 171 169 169 169 169 173 171 172 170 171 169 165 157 147 145
226 232 237 223 228 243 244 201 181 178 199 273 283 275 254 222 176 175 182 190 178 194 209 208 198 191 186 168 165 165 157 153 159 164 162 162 157 146 148 151 143 134 127 114
352 330 319 327 297 256 219 177 168 195 208 217 256 270 251 220 178 168 165 162 158 168 183 197 188 167 152 142 144 154 153 150 148 142 141 141 135 133 135 129 118 110 103 99